Weather History for KD07 - January, 2012

Change the Weather History Date:

Thursday, January 12, 2012

  Actual Average Record
Temperature  
Mean Temperature 14 °F 20 °F  
Max Temperature 28 °F 30 °F - ()
Min Temperature -1 °F 11 °F - ()
Degree Days  
Heating Degree Days 51 45  
Month to date heating degree days 392 540  
Since 1 July heating degree days 2895 3683  
Cooling Degree Days 0 0  
Month to date cooling degree days 0 0  
Year to date cooling degree days 0 0  
Moisture  
Dew Point 4 °F    
Average Humidity 67    
Maximum Humidity 96    
Minimum Humidity 37    
Precipitation  
Precipitation 0.01 in 0.01 in - ()
Month to date precipitation 0.04 0.08  
Year to date precipitation 0.04 0.08  
Sea Level Pressure  
Sea Level Pressure 30.21 in    
Wind  
Wind Speed 12 mph (NW)    
Max Wind Speed 30 mph    
Max Gust Speed 37 mph    
T = Trace of Precipitation, MM = Missing Value Source: NWS Daily Summary

Daily Weather History Graph

Daily Weather History Graph

Search for Another Location

Airport or City:

Trip Planner

Search our weather history database for the weather conditions in past years. The results will help you decide how hot, cold, wet, or windy it might be!

Date:

Astronomy

Jan. 12, 2012 Rise Set
Actual Time 7:24 AM MST 4:28 PM MST
Civil Twilight 6:51 AM MST 5:01 PM MST
Nautical Twilight 6:14 AM MST 5:38 PM MST
Astronomical Twilight 5:39 AM MST 6:13 PM MST
Moon 8:49 PM MST (1/12) 8:57 AM MST (1/12)
Length of Visible Light 10h 09m
Length of Day
9h 03m
Waning Gibbous, 86% of the Moon is Illuminated
Jan 12
Waning Gibbous
Jan 16
Last Quarter
Jan 23
New
Jan 30
First Quarter
Feb 7
Full

Hourly Weather History & Observations

Time (MST) Temp. Windchill Dew Point Humidity Pressure Visibility Wind Dir Wind Speed Gust Speed Precip Events Conditions
12:56 AM 3.0 °F -18.8 °F -7.1 °F 63% 30.31 in - NW 21.9 mph - N/A   Unknown
1:56 AM 1.9 °F -19.2 °F -8.0 °F 63% 30.32 in - NW 19.6 mph - N/A   Unknown
2:56 AM 1.9 °F -19.2 °F -9.0 °F 60% 30.31 in - NW 19.6 mph - N/A   Unknown
3:56 AM -0.0 °F -20.7 °F -9.0 °F 66% 30.32 in - NW 17.3 mph - N/A   Unknown
4:56 AM -0.0 °F -18.0 °F -9.0 °F 66% 30.30 in - WNW 12.7 mph - N/A   Unknown
5:56 AM -0.0 °F -14.2 °F -9.0 °F 66% 30.31 in - WNW 8.1 mph - N/A   Unknown
6:56 AM -0.0 °F -15.3 °F -7.1 °F 72% 30.30 in - WNW 9.2 mph - N/A   Unknown
7:56 AM 7.0 °F -5.7 °F -2.9 °F 64% 30.27 in - NW 8.1 mph - N/A   Unknown
8:56 AM 10.9 °F -4.1 °F -0.9 °F 59% 30.27 in - NW 12.7 mph - N/A   Unknown
9:56 AM 15.1 °F 0.5 °F 1.9 °F 56% 30.27 in - NW 13.8 mph - N/A   Unknown
10:56 AM 18.0 °F 4.2 °F 3.9 °F 54% 30.23 in - NW 13.8 mph - N/A   Unknown
11:56 AM 23.0 °F 11.7 °F 5.0 °F 46% 30.18 in - NW 11.5 mph - N/A   Unknown
12:56 PM 26.1 °F 15.6 °F 6.1 °F 43% 30.15 in - NW 11.5 mph - N/A   Unknown
1:56 PM 27.0 °F 16.7 °F 3.9 °F 37% 30.13 in - NW 11.5 mph - N/A   Unknown
2:56 PM 26.1 °F 16.8 °F 6.1 °F 43% 30.14 in - NNW 9.2 mph - N/A   Unknown
3:56 PM 23.0 °F 17.0 °F 7.0 °F 50% 30.15 in - North 4.6 mph - N/A   Unknown
4:56 PM 25.0 °F 13.6 °F 10.9 °F 55% 30.15 in - NNW 12.7 mph - N/A   Unknown
5:56 PM 21.0 °F 11.4 °F 12.0 °F 68% 30.16 in - NW 8.1 mph - N/A   Unknown
6:56 PM 24.1 °F 12.5 °F 16.0 °F 71% 30.15 in - NW 12.7 mph - N/A   Unknown
7:56 PM 24.1 °F 12.0 °F 18.0 °F 77% 30.13 in - NW 13.8 mph - N/A   Unknown
8:56 PM 24.1 °F 11.5 °F 17.1 °F 75% 30.11 in - NNW 15.0 mph - N/A   Unknown
9:56 PM 24.1 °F 13.7 °F 19.9 °F 84% 30.10 in - NNW 10.4 mph - 0.01 in   Unknown
10:56 PM 23.0 °F 14.7 °F 21.0 °F 92% 30.10 in - NNW 6.9 mph - N/A   Unknown
11:56 PM 21.9 °F 14.5 °F 19.9 °F 92% 30.07 in - WNW 5.8 mph - N/A   Unknown